Total_Precipitation_Accumulation
1.75 1.86 1.96 1.96 2.02 2.11 2.24 2.36 2.43 2.27 2.03 1.87 1.87 1.84 1.85 1.90 2.06 1.69 1.63 1.85 1.73 1.62 1.54 1.45 1.41 1.45 1.50 1.55 1.60 1.72 1.82 1.89 1.96 2.02 2.10 2.26 2.38 2.46
1.51 1.59 1.68 1.75 1.86 1.95 2.08 2.17 2.24 2.22 2.11 1.89 1.81 1.78 1.77 1.69 1.85 1.52 1.53 1.71 1.59 1.50 1.42 1.36 1.31 1.32 1.34 1.40 1.45 1.47 1.49 1.50 1.54 1.57 1.61 1.67 1.82 2.04
1.55 1.59 1.63 1.67 1.75 1.76 1.79 1.84 1.97 2.09 2.18 2.08 1.89 1.82 1.81 1.74 1.64 1.45 1.35 1.33 1.35 1.40 1.35 1.32 1.25 1.20 1.21 1.23 1.20 1.19 1.19 1.22 1.26 1.29 1.32 1.39 1.44 1.52
1.43 1.50 1.49 1.46 1.52 1.62 1.68 1.67 1.72 1.83 1.95 2.01 1.88 1.73 1.69 1.67 1.62 1.53 1.30 1.17 1.17 1.20 1.12 1.08 1.09 1.06 1.01 1.03 1.05 1.02 0.99 1.02 1.06 1.10 1.12 1.18 1.24 1.31
1.24 1.25 1.27 1.30 1.28 1.32 1.38 1.44 1.46 1.49 1.63 1.69 1.66 1.60 1.55 1.49 1.52 1.49 1.36 1.39 1.17 1.11 1.01 0.93 0.91 0.89 0.85 0.83 0.87 0.94 0.91 0.85 0.83 0.87 0.91 0.97 1.03 1.08
0.97 0.99 1.06 1.16 1.18 1.21 1.18 1.23 1.26 1.37 1.46 1.52 1.49 1.48 1.50 1.40 1.40 1.45 1.41 1.35 1.22 1.01 1.00 0.87 0.79 0.72 0.71 0.73 0.71 0.74 0.79 0.83 0.89 0.87 0.80 0.74 0.75 0.78
0.77 0.75 0.77 0.91 1.01 0.99 0.92 1.03 1.16 1.31 1.37 1.40 1.35 1.29 1.27 1.34 1.32 1.27 1.27 1.29 1.22 1.08 1.11 0.96 0.87 0.81 0.81 0.79 0.74 0.70 0.72 0.72 0.74 0.75 0.73 0.68 0.66 0.65
0.76 0.76 0.69 0.73 0.77 0.75 0.74 0.87 1.06 1.10 1.18 1.29 1.30 1.27 1.27 1.29 1.26 1.24 1.31 1.37 1.37 1.16 1.14 1.06 0.96 0.96 0.91 0.85 0.79 0.70 0.67 0.72 0.71 0.67 0.66 0.64 0.64 0.64
0.76 0.74 0.64 0.60 0.67 0.69 0.70 0.74 0.82 0.83 0.93 1.13 1.27 1.23 1.24 1.32 1.36 1.31 1.39 1.44 1.39 1.29 1.32 1.27 1.08 0.99 0.79 0.71 0.74 0.65 0.63 0.67 0.71 0.68 0.67 0.66 0.66 0.66
0.73 0.72 0.73 0.69 0.65 0.66 0.65 0.69 0.78 0.83 0.84 0.90 1.12 1.14 1.10 1.21 1.31 1.37 1.46 1.46 1.41 1.37 1.41 1.42 1.13 1.03 0.84 0.84 0.77 0.63 0.59 0.59 0.64 0.66 0.67 0.67 0.68 0.71
0.65 0.59 0.62 0.65 0.65 0.63 0.67 0.80 0.87 0.92 0.77 0.78 0.88 0.97 1.00 1.07 1.13 1.23 1.44 1.59 1.53 1.34 1.32 1.40 1.20 1.09 0.97 0.93 0.84 0.72 0.63 0.59 0.56 0.58 0.61 0.65 0.70 0.78
0.63 0.60 0.55 0.55 0.56 0.57 0.67 0.81 0.90 0.90 0.82 0.82 0.98 1.08 1.07 1.15 1.16 1.25 1.48 1.56 1.49 1.45 1.28 1.32 1.29 1.27 1.23 0.98 0.88 0.81 0.76 0.69 0.60 0.58 0.59 0.62 0.71 0.75
0.60 0.63 0.58 0.48 0.45 0.49 0.61 0.68 0.75 0.74 0.85 1.01 1.10 1.13 1.16 1.23 1.22 1.20 1.36 1.45 1.52 1.56 1.31 1.32 1.35 1.38 1.44 1.17 0.93 0.85 0.86 0.85 0.82 0.82 0.79 0.73 0.71 0.71
0.66 0.66 0.58 0.48 0.44 0.46 0.54 0.61 0.63 0.73 0.92 1.11 1.20 1.19 1.12 1.11 1.16 1.15 1.26 1.35 1.40 1.36 1.27 1.32 1.46 1.49 1.41 1.21 1.04 0.91 0.92 0.99 1.07 1.16 1.13 1.08 0.94 0.88
0.58 0.55 0.50 0.50 0.49 0.59 0.61 0.62 0.72 0.94 1.07 1.14 1.22 1.23 1.13 1.08 1.08 1.04 1.12 1.28 1.27 1.09 0.95 1.03 1.25 1.29 1.34 1.28 1.17 1.10 1.08 1.09 1.19 1.35 1.40 1.33 1.21 1.08
0.51 0.53 0.57 0.61 0.64 0.72 0.81 0.91 0.95 1.01 1.02 1.09 1.15 1.11 1.00 0.98 1.05 1.06 1.13 1.21 1.25 1.14 0.95 0.90 1.02 1.18 1.29 1.22 1.22 1.22 1.20 1.29 1.29 1.39 1.54 1.57 1.42 1.18
0.41 0.58 0.80 0.85 0.92 0.98 1.02 1.06 1.11 1.05 0.99 1.00 1.03 1.04 1.00 0.99 1.00 0.97 1.04 1.11 1.21 1.16 1.04 0.96 0.98 1.04 1.06 1.08 1.14 1.15 1.18 1.27 1.38 1.46 1.60 1.74 1.68 1.39
0.42 0.68 0.80 0.85 0.93 0.96 0.96 0.99 1.06 1.09 1.02 0.96 0.96 0.97 0.96 0.95 0.97 0.93 0.95 1.08 1.17 1.08 1.00 0.95 0.93 0.97 1.00 0.96 0.97 1.05 1.13 1.28 1.41 1.48 1.47 1.60 1.78 1.61
0.59 0.76 0.78 0.83 0.89 0.84 0.84 0.89 0.92 0.94 0.87 0.84 0.83 0.83 0.83 0.85 0.91 0.92 0.87 0.88 0.91 0.87 0.83 0.83 0.87 0.96 1.03 1.10 1.06 1.12 1.22 1.30 1.38 1.42 1.44 1.51 1.69 1.62
0.67 0.72 0.74 0.75 0.80 0.79 0.78 0.78 0.76 0.71 0.67 0.69 0.76 0.78 0.78 0.78 0.79 0.80 0.75 0.73 0.79 0.80 0.77 0.81 0.85 0.92 1.01 1.07 1.23 1.35 1.28 1.19 1.22 1.37 1.50 1.54 1.64 1.62
0.63 0.64 0.67 0.68 0.69 0.75 0.74 0.68 0.63 0.59 0.57 0.58 0.63 0.68 0.71 0.69 0.70 0.67 0.62 0.56 0.64 0.71 0.73 0.75 0.77 0.80 0.86 0.94 1.09 1.26 1.29 1.32 1.28 1.34 1.43 1.47 1.39 1.29
0.55 0.56 0.54 0.53 0.55 0.59 0.58 0.54 0.52 0.52 0.51 0.51 0.54 0.54 0.54 0.58 0.60 0.57 0.53 0.54 0.59 0.60 0.64 0.65 0.66 0.71 0.81 0.92 1.06 1.21 1.24 1.13 1.10 1.18 1.24 1.16 1.07 1.12
0.52 0.50 0.46 0.43 0.43 0.46 0.47 0.47 0.46 0.47 0.48 0.51 0.50 0.47 0.46 0.47 0.46 0.46 0.47 0.46 0.47 0.47 0.52 0.57 0.60 0.66 0.70 0.72 0.79 0.87 0.88 0.84 0.79 0.82 0.96 1.06 1.06 1.09